Location: Toronto
(43.6672°N, 79.4170°W)
Time: 00:15:50
(UTC-04:00)

ISS - Visible Passes

Search period start: 24 October 2017 00:00
Search period end: 03 November 2017 00:00
Orbit: 400 x 408 km, 51.6° (Epoch: 24 October)

Date Brightness Start Highest point End Pass type
(mag) Time Alt. Az. Time Alt. Az. Time Alt. Az.
28 Oct -1.3 07:13:42 10° SSW 07:16:23 24° SE 07:19:04 10° E visible
29 Oct -0.8 06:22:33 10° SSE 06:24:11 13° SE 06:25:48 10° ESE visible
30 Oct -3.1 07:04:39 10° SW 07:07:50 54° SE 07:11:02 10° ENE visible
31 Oct -2.0 06:13:26 15° SSW 06:15:31 29° SE 06:18:23 10° ENE visible
01 Nov -0.9 05:23:50 15° ESE 05:23:50 15° ESE 05:25:21 10° E visible
01 Nov -3.9 06:56:31 13° WSW 06:59:22 69° NNW 07:02:37 10° NE visible
02 Nov -3.7 06:06:44 65° S 06:06:55 67° SE 06:10:09 10° ENE visible
